| time (UTC) | temp F | wind direction | speed MPH | gust MPH | rain 1hr in | rain 24hr in | rain mn in | humidity % | barometer mb |
| 20260509132116 | 42 | 157 | 0.0 | 0.0 | 0.03 | 0.03 | 0.03 | 91 | 1017.1 |
| 20260509131118 | 41 | 157 | 0.0 | 0.0 | 0.02 | 0.02 | 0.02 | 91 | 1017.2 |
| 20260509130117 | 41 | 157 | 0.0 | 0.0 | 0.02 | 0.02 | 0.02 | 90 | 1017.2 |
| 20260509125217 | 41 | 157 | 0.0 | 0.0 | 0.01 | 0.01 | 0.01 | 91 | 1017.3 |
| 20260509124218 | 40 | 157 | 0.0 | 0.0 | 0.01 | 0.01 | 0.01 | 91 | 1017.3 |
| 20260509123117 | 40 | 170 | 0.0 | 2.0 | 0.00 | 0.00 | 0.00 | 90 | 1017.5 |
| 20260509122117 | 40 | 180 | 0.0 | 0.0 | 0.00 | 0.00 | 0.00 | 89 | 1017.7 |
| 20260509121116 | 39 | 180 | 0.0 | 0.0 | 0.00 | 0.00 | 0.00 | 90 | 1017.7 |
| 20260509120132 | 39 | 180 | 0.0 | 0.0 | 0.00 | 0.00 | 0.00 | 90 | 1017.5 |
| 20260509115216 | 38 | 180 | 0.0 | 0.0 | 0.00 | 0.00 | 0.00 | 90 | 1017.6 |
| 20260509114218 | 37 | 180 | 0.0 | 0.0 | 0.00 | 0.00 | 0.00 | 90 | 1017.6 |
| 20260509114133 | 37 | 180 | 0.0 | 0.0 | 0.00 | 0.00 | 0.00 | 91 | 1017.5 |
| 20260509111219 | 35 | 157 | 0.0 | 0.0 | 0.00 | 0.00 | 0.00 | 91 | 1017.5 |
| 20260509111118 | 35 | 157 | 0.0 | 0.0 | 0.00 | 0.00 | 0.00 | 90 | 1017.4 |
| 20260509105117 | 34 | 157 | 0.0 | 0.0 | 0.00 | 0.00 | 0.00 | 92 | 1017.6 |
| 20260509105018 | 34 | 157 | 0.0 | 0.0 | 0.00 | 0.00 | 0.00 | 92 | 1017.6 |
| 20260509104033 | 34 | 157 | 0.0 | 0.0 | 0.00 | 0.00 | 0.00 | 91 | 1017.6 |
| 20260509103116 | 33 | 157 | 0.0 | 0.0 | 0.00 | 0.00 | 0.00 | 91 | 1017.6 |
| 20260509103016 | 33 | 157 | 0.0 | 0.0 | 0.00 | 0.00 | 0.00 | 91 | 1017.5 |
| 20260509101018 | 32 | 157 | 0.0 | 0.0 | 0.00 | 0.00 | 0.00 | 92 | 1017.5 |
| 20260509100916 | 32 | 157 | 0.0 | 0.0 | 0.00 | 0.00 | 0.00 | 92 | 1017.4 |
| 20260509095918 | 32 | 157 | 1.0 | 1.0 | 0.00 | 0.00 | 0.00 | 92 | 1017.3 |
| 20260509094917 | 32 | 157 | 0.0 | 0.0 | 0.00 | 0.00 | 0.00 | 91 | 1017.1 |
| 20260509093916 | 32 | 157 | 0.0 | 0.0 | 0.00 | 0.00 | 0.00 | 92 | 1017.1 |
| 20260509093818 | 32 | 157 | 0.0 | 0.0 | 0.00 | 0.00 | 0.00 | 91 | 1017.1 |
| 20260509092817 | 32 | 157 | 1.0 | 2.0 | 0.00 | 0.00 | 0.00 | 92 | 1017.1 |
| 20260509091916 | 32 | 157 | 0.0 | 0.0 | 0.00 | 0.00 | 0.00 | 92 | 1016.9 |
| 20260509090919 | 32 | 157 | 0.0 | 0.0 | 0.00 | 0.00 | 0.00 | 90 | 1016.8 |
| 20260509090015 | 31 | 157 | 0.0 | 0.0 | 0.00 | 0.00 | 0.00 | 90 | 1016.7 |
| 20260509085918 | 31 | 157 | 0.0 | 0.0 | 0.00 | 0.00 | 0.00 | 91 | 1016.9 |
| 20260509084938 | 31 | 157 | 0.0 | 0.0 | 0.00 | 0.00 | 0.00 | 91 | 1016.8 |
| 20260509082937 | 30 | 157 | 1.0 | 2.0 | 0.00 | 0.00 | 0.00 | 91 | 1016.4 |
| 20260509081938 | 30 | 157 | 0.0 | 0.0 | 0.00 | 0.00 | 0.00 | 91 | 1016.5 |
| 20260509081036 | 31 | 157 | 0.0 | 0.0 | 0.00 | 0.00 | 0.00 | 91 | 1016.4 |
| 20260509080039 | 31 | 157 | 0.0 | 1.0 | 0.00 | 0.00 | 0.00 | 90 | 1016.4 |
| 20260509075136 | 31 | 180 | 1.0 | 1.0 | 0.00 | 0.00 | 0.00 | 91 | 1016.3 |
| 20260509074137 | 31 | 180 | 0.0 | 0.0 | 0.00 | 0.00 | 0.00 | 90 | 1016.5 |
| 20260509073136 | 31 | 180 | 0.0 | 0.0 | 0.00 | 0.00 | 0.00 | 89 | 1016.5 |
| 20260509073037 | 31 | 180 | 0.0 | 0.0 | 0.00 | 0.00 | 0.00 | 89 | 1016.5 |
| 20260509072038 | 32 | 180 | 0.0 | 0.0 | 0.00 | 0.00 | 0.00 | 89 | 1016.6 |
| 20260509071936 | 32 | 180 | 0.0 | 0.0 | 0.00 | 0.00 | 0.00 | 89 | 1016.6 |
| 20260509065953 | 32 | 180 | 0.0 | 0.0 | 0.00 | 0.00 | 0.00 | 88 | 1016.3 |
| 20260509064936 | 32 | 180 | 0.0 | 0.0 | 0.00 | 0.00 | 0.00 | 88 | 1016.5 |
| 20260509062938 | 33 | 22 | 0.0 | 0.0 | 0.00 | 0.00 | 0.00 | 88 | 1016.6 |
| 20260509061938 | 34 | 22 | 0.0 | 1.0 | 0.00 | 0.00 | 0.00 | 87 | 1016.6 |
| 20260509061036 | 34 | 22 | 1.0 | 2.0 | 0.00 | 0.00 | 0.00 | 87 | 1016.7 |
| 20260509060937 | 34 | 337 | 0.0 | 2.0 | 0.00 | 0.00 | 0.00 | 87 | 1016.7 |
| 20260509055936 | 34 | 315 | 0.0 | 0.0 | 0.00 | 0.00 | 0.00 | 85 | 1016.8 |
| 20260509053135 | 35 | 315 | 0.0 | 0.0 | 0.00 | 0.00 | 0.00 | 84 | 1016.9 |
| 20260509052151 | 35 | 315 | 0.0 | 0.0 | 0.00 | 0.00 | 0.00 | 82 | 1016.7 |
| 20260509051235 | 36 | 315 | 0.0 | 0.0 | 0.00 | 0.00 | 0.00 | 82 | 1016.6 |
| 20260509050239 | 36 | 315 | 0.0 | 0.0 | 0.00 | 0.00 | 0.00 | 81 | 1016.7 |
| 20260509045335 | 36 | 315 | 0.0 | 0.0 | 0.00 | 0.00 | 0.00 | 80 | 1016.5 |
| 20260509045237 | 37 | 315 | 0.0 | 0.0 | 0.00 | 0.00 | 0.00 | 80 | 1016.5 |
| 20260509043235 | 37 | 315 | 0.0 | 0.0 | 0.00 | 0.00 | 0.00 | 79 | 1016.5 |
| 20260509042236 | 38 | 315 | 0.0 | 0.0 | 0.00 | 0.00 | 0.00 | 77 | 1016.4 |
| 20260509041335 | 38 | 315 | 0.0 | 0.0 | 0.00 | 0.00 | 0.00 | 77 | 1016.4 |
| 20260509040238 | 39 | 315 | 0.0 | 0.0 | 0.00 | 0.00 | 0.00 | 75 | 1016.3 |
| 20260509035246 | 39 | 225 | 0.0 | 0.0 | 0.00 | 0.00 | 0.00 | 74 | 1016.3 |
| 20260509032247 | 40 | 281 | 0.0 | 2.0 | 0.00 | 0.00 | 0.00 | 74 | 1016.3 |
| 20260509025347 | 40 | 112 | 0.0 | 0.0 | 0.00 | 0.00 | 0.00 | 72 | 1016.0 |
| 20260509024345 | 41 | 112 | 0.0 | 0.0 | 0.00 | 0.00 | 0.00 | 70 | 1015.8 |
| 20260509023345 | 41 | 112 | 0.0 | 0.0 | 0.00 | 0.00 | 0.00 | 70 | 1016.0 |
| 20260509023244 | 41 | 112 | 0.0 | 0.0 | 0.00 | 0.00 | 0.00 | 69 | 1016.0 |
| 20260509022246 | 42 | 112 | 1.0 | 1.0 | 0.00 | 0.00 | 0.00 | 68 | 1015.9 |
| 20260509021344 | 43 | 112 | 0.0 | 1.0 | 0.00 | 0.00 | 0.00 | 66 | 1015.8 |
| 20260509020345 | 44 | 112 | 0.0 | 1.0 | 0.00 | 0.00 | 0.00 | 64 | 1015.7 |
| 20260509015444 | 45 | 22 | 1.0 | 1.0 | 0.00 | 0.00 | 0.00 | 61 | 1015.5 |
| 20260509014445 | 46 | 270 | 0.0 | 1.0 | 0.00 | 0.00 | 0.00 | 59 | 1015.5 |
| 20260509014344 | 46 | 270 | 0.0 | 1.0 | 0.00 | 0.00 | 0.00 | 59 | 1015.4 |
| 20260509012345 | 46 | 263 | 2.0 | 4.0 | 0.00 | 0.00 | 0.00 | 59 | 1015.1 |
| 20260509011346 | 46 | 254 | 1.0 | 2.0 | 0.00 | 0.00 | 0.00 | 59 | 1015.0 |
| 20260509010347 | 46 | 242 | 2.0 | 5.0 | 0.00 | 0.00 | 0.00 | 58 | 1015.0 |
| 20260509005347 | 47 | 247 | 1.0 | 2.0 | 0.00 | 0.00 | 0.00 | 57 | 1014.6 |
| 20260509004444 | 47 | 247 | 1.0 | 2.0 | 0.00 | 0.00 | 0.00 | 56 | 1014.4 |
| 20260509004347 | 47 | 247 | 1.0 | 2.0 | 0.00 | 0.00 | 0.00 | 56 | 1014.5 |
| 20260509003347 | 47 | 247 | 1.0 | 2.0 | 0.00 | 0.00 | 0.00 | 56 | 1014.4 |
| 20260509002345 | 47 | 253 | 2.0 | 3.0 | 0.00 | 0.00 | 0.00 | 55 | 1014.3 |
| 20260509001346 | 47 | 311 | 1.0 | 2.0 | 0.00 | 0.00 | 0.00 | 55 | 1014.1 |
| 20260509000444 | 48 | 246 | 3.0 | 5.0 | 0.00 | 0.00 | 0.00 | 54 | 1014.0 |
| 20260509000348 | 48 | 244 | 3.0 | 4.0 | 0.00 | 0.00 | 0.00 | 55 | 1014.1 |
| 20260508235444 | 48 | 248 | 2.0 | 4.0 | 0.00 | 0.00 | 0.00 | 54 | 1014.1 |
| 20260508234447 | 48 | 274 | 5.0 | 9.0 | 0.00 | 0.00 | 0.00 | 54 | 1013.8 |
| 20260508233447 | 48 | 253 | 2.0 | 5.0 | 0.00 | 0.00 | 0.00 | 53 | 1013.7 |
| 20260508232446 | 48 | 293 | 5.0 | 9.0 | 0.00 | 0.00 | 0.00 | 51 | 1013.5 |
| 20260508230545 | 49 | 277 | 6.0 | 9.0 | 0.00 | 0.00 | 0.00 | 48 | 1013.4 |
| 20260508223746 | 50 | 261 | 4.0 | 8.0 | 0.00 | 0.00 | 0.00 | 49 | 1013.3 |
| 20260508221802 | 50 | 259 | 5.0 | 7.0 | 0.00 | 0.00 | 0.00 | 45 | 1013.4 |
| 20260508221646 | 51 | 264 | 6.0 | 9.0 | 0.00 | 0.00 | 0.00 | 44 | 1013.3 |
| 20260508220647 | 52 | 254 | 8.0 | 13.0 | 0.00 | 0.00 | 0.00 | 42 | 1013.1 |
| 20260508220547 | 52 | 249 | 5.0 | 12.0 | 0.00 | 0.00 | 0.00 | 41 | 1013.2 |
| 20260508215601 | 52 | 240 | 2.0 | 3.0 | 0.00 | 0.00 | 0.00 | 40 | 1012.9 |
| 20260508215446 | 52 | 236 | 4.0 | 7.0 | 0.00 | 0.00 | 0.00 | 39 | 1012.8 |
| 20260508214448 | 53 | 263 | 6.0 | 11.0 | 0.00 | 0.00 | 0.00 | 39 | 1012.6 |
| 20260508211546 | 53 | 302 | 2.0 | 4.0 | 0.00 | 0.00 | 0.00 | 41 | 1012.3 |
| 20260508210546 | 52 | 271 | 1.0 | 3.0 | 0.00 | 0.00 | 0.00 | 40 | 1012.3 |
| 20260508204645 | 53 | 271 | 3.0 | 6.0 | 0.00 | 0.00 | 0.00 | 40 | 1012.2 |
| 20260508203703 | 53 | 242 | 3.0 | 6.0 | 0.00 | 0.00 | 0.00 | 39 | 1012.1 |
| 20260508202647 | 54 | 190 | 3.0 | 5.0 | 0.00 | 0.00 | 0.00 | 39 | 1012.0 |
| 20260508201646 | 53 | 185 | 3.0 | 5.0 | 0.00 | 0.00 | 0.00 | 39 | 1012.0 |
| 20260508201547 | 53 | 264 | 3.0 | 5.0 | 0.00 | 0.00 | 0.00 | 40 | 1012.1 |
| 20260508200544 | 52 | 294 | 3.0 | 7.0 | 0.00 | 0.00 | 0.00 | 37 | 1012.1 |
| 20260508195546 | 53 | 241 | 7.0 | 15.0 | 0.00 | 0.00 | 0.00 | 37 | 1011.9 |
| 20260508194644 | 54 | 236 | 7.0 | 13.0 | 0.00 | 0.00 | 0.00 | 35 | 1011.9 |
| 20260508194547 | 54 | 249 | 7.0 | 15.0 | 0.00 | 0.00 | 0.00 | 36 | 1011.7 |
| 20260508193546 | 55 | 278 | 5.0 | 7.0 | 0.00 | 0.00 | 0.00 | 37 | 1011.6 |
| 20260508192645 | 54 | 191 | 2.0 | 3.0 | 0.00 | 0.00 | 0.00 | 37 | 1011.9 |
| 20260508191646 | 53 | 288 | 5.0 | 11.0 | 0.00 | 0.00 | 0.00 | 36 | 1011.9 |
| 20260508185747 | 53 | 245 | 6.0 | 8.0 | 0.00 | 0.00 | 0.00 | 37 | 1012.2 |
| 20260508184748 | 53 | 257 | 4.0 | 11.0 | 0.00 | 0.00 | 0.00 | 37 | 1012.1 |
| 20260508184645 | 53 | 255 | 8.0 | 15.0 | 0.00 | 0.00 | 0.00 | 37 | 1012.1 |
| 20260508183645 | 53 | 309 | 4.0 | 7.0 | 0.00 | 0.00 | 0.00 | 35 | 1012.2 |
| 20260508181645 | 53 | 294 | 4.0 | 7.0 | 0.00 | 0.00 | 0.00 | 36 | 1012.4 |
| 20260508180644 | 52 | 308 | 5.0 | 8.0 | 0.00 | 0.00 | 0.00 | 36 | 1012.2 |
| 20260508175744 | 53 | 262 | 5.0 | 9.0 | 0.00 | 0.00 | 0.00 | 36 | 1012.3 |
| 20260508174744 | 52 | 253 | 4.0 | 10.0 | 0.00 | 0.00 | 0.00 | 37 | 1012.4 |
| 20260508171745 | 52 | 334 | 3.0 | 7.0 | 0.00 | 0.00 | 0.00 | 36 | 1012.4 |
| 20260508165846 | 52 | 304 | 5.0 | 7.0 | 0.00 | 0.00 | 0.00 | 35 | 1012.2 |
| 20260508164844 | 52 | 306 | 3.0 | 8.0 | 0.00 | 0.00 | 0.00 | 34 | 1012.3 |
| 20260508164747 | 52 | 360 | 1.0 | 4.0 | 0.00 | 0.00 | 0.00 | 35 | 1012.3 |
| 20260508163745 | 51 | 221 | 7.0 | 12.0 | 0.00 | 0.00 | 0.00 | 34 | 1012.4 |
| 20260508161844 | 52 | 266 | 3.0 | 6.0 | 0.00 | 0.00 | 0.00 | 34 | 1012.3 |
| 20260508161744 | 52 | 249 | 6.0 | 11.0 | 0.00 | 0.00 | 0.00 | 34 | 1012.3 |
| 20260508154946 | 52 | 297 | 5.0 | 9.0 | 0.00 | 0.00 | 0.00 | 36 | 1012.0 |
| 20260508154900 | 52 | 331 | 4.0 | 6.0 | 0.00 | 0.00 | 0.00 | 36 | 1012.0 |
| 20260508151945 | 51 | 237 | 8.0 | 14.0 | 0.00 | 0.00 | 0.00 | 39 | 1012.4 |
| 20260508151901 | 51 | 280 | 4.0 | 9.0 | 0.00 | 0.00 | 0.00 | 38 | 1012.4 |
| 20260508150845 | 50 | 329 | 5.0 | 7.0 | 0.00 | 0.00 | 0.00 | 40 | 1012.4 |
| 20260508145846 | 51 | 326 | 3.0 | 4.0 | 0.00 | 0.00 | 0.00 | 41 | 1012.5 |
| 20260508145745 | 51 | 318 | 4.0 | 8.0 | 0.00 | 0.00 | 0.00 | 41 | 1012.4 |
| 20260508144746 | 51 | 248 | 4.0 | 6.0 | 0.00 | 0.00 | 0.00 | 43 | 1012.4 |
| 20260508144647 | 51 | 323 | 3.0 | 9.0 | 0.00 | 0.00 | 0.00 | 43 | 1012.4 |
| 20260508143644 | 50 | 310 | 6.0 | 8.0 | 0.00 | 0.00 | 0.00 | 44 | 1012.3 |
| 20260508143544 | 50 | 285 | 5.0 | 12.0 | 0.00 | 0.00 | 0.00 | 45 | 1012.4 |
| 20260508141546 | 49 | 290 | 4.0 | 7.0 | 0.00 | 0.00 | 0.00 | 47 | 1012.7 |
| 20260508140545 | 49 | 312 | 0.0 | 3.0 | 0.00 | 0.00 | 0.00 | 48 | 1012.7 |
| 20260508140445 | 49 | 321 | 5.0 | 7.0 | 0.00 | 0.00 | 0.00 | 47 | 1012.9 |
| 20260508135444 | 48 | 276 | 2.0 | 5.0 | 0.00 | 0.00 | 0.00 | 48 | 1012.9 |
| 20260508135344 | 48 | 348 | 1.0 | 2.0 | 0.00 | 0.00 | 0.00 | 48 | 1013.0 |
| 20260508134347 | 48 | 229 | 4.0 | 6.0 | 0.00 | 0.00 | 0.00 | 48 | 1013.2 |
| 20260508133345 | 47 | 281 | 5.0 | 9.0 | 0.00 | 0.00 | 0.00 | 50 | 1013.2 |